Flag for Sweden Weather past 2 weeks in Eskilstuna, Sweden

Now
36 °F

Partly sunny.


Feels Like: 25 °F
Forecast: 30 / 39 °F
Wind: 18 mph from South

Location: Vasteras / Hasslo

Current Time: Feb 27, 2015 at 1:45:16 PM

Latest Report: Feb 27, 2015 at 12:50 PM


Visibility: N/A

Pressure: 29.95 "Hg

Humidity: 93%

Dew point: 34 °F

Location of EskilstunaLocation

Historic Weather in Eskilstuna — Graph

°F

Eskilstuna temperature yesterday

Maximum temperature yesterday: 41 °F (at 11:50 AM)
Minimum temperature yesterday: 28 °F (at 12:20 AM)
Average temperature yesterday: 34 °F

Past Weeks' High & Low Weather Summary

 TemperatureHumidityPressure
High45 °F (Feb 19, 2:20 PM)100% (Feb 12, 9:50 PM)30.66 "Hg (Feb 12, 9:50 PM)
Low18 °F (Feb 15, 10:20 PM)48% (Feb 15, 2:50 PM)29.18 "Hg (Feb 21, 11:50 PM)
Average35 °F83%29.88 "Hg
* Reported Feb 12 12:20 PM — Feb 27 12:20 PM, Eskilstuna, Weather by CustomWeather, © 2015

Note: Actual official high and low records may vary slightly from our data, if they occured in-between our weather recording intervals... More about our weather records

Advertising

Eskilstuna weather history for previous 24 hours

 ConditionsComfort  
Time TempWeatherWind HumidityBarometerVisibility
12:20 PM
Fri, Feb 27
36 °FPartly sunny.17 mph93%29.95 "HgN/A
11:50 AM37 °FPartly sunny.16 mph87%29.95 "HgN/A
11:20 AM37 °FPartly sunny.16 mph81%29.95 "HgN/A
10:50 AM37 °FPartly sunny.17 mph81%29.95 "HgN/A
10:20 AM37 °FPartly sunny.18 mph81%29.95 "HgN/A
9:50 AM37 °FBroken clouds.20 mph81%29.95 "HgN/A
9:20 AM37 °FPartly sunny.14 mph81%29.98 "HgN/A
8:50 AM36 °FPartly sunny.16 mph87%29.98 "HgN/A
8:20 AM36 °FPartly sunny.15 mph87%29.95 "HgN/A
7:50 AM36 °FPartly sunny.13 mph87%29.98 "HgN/A
7:20 AM36 °FPartly sunny.14 mph87%29.98 "HgN/A
6:50 AM36 °FPassing clouds.15 mph81%29.98 "HgN/A
6:20 AM34 °FPassing clouds.13 mph87%29.98 "HgN/A
5:20 AM34 °FMostly cloudy.12 mph87%29.98 "HgN/A
4:20 AM34 °FOvercast.12 mph87%29.98 "HgN/A
3:50 AM34 °FOvercast.12 mph87%30.01 "HgN/A
3:20 AM34 °FPassing clouds.12 mph87%30.01 "HgN/A
2:50 AM32 °FPassing clouds.10 mph87%29.98 "HgN/A
2:20 AM32 °FPassing clouds.9 mph93%30.01 "Hg6 mi
1:50 AM32 °FIce fog.7 mph93%30.01 "Hg6 mi
1:20 AM34 °FFog.7 mph87%30.01 "Hg5 mi
12:50 AM34 °FFog.12 mph87%30.01 "Hg6 mi
12:20 AM34 °FFog.15 mph87%30.01 "Hg5 mi
11:50 PM
Thu, Feb 26
34 °FFog.16 mph93%30.04 "Hg5 mi
11:20 PM34 °FFog.15 mph93%30.04 "Hg4 mi
10:50 PM34 °FFog.9 mph87%30.04 "Hg4 mi
10:20 PM34 °FFog.10 mph93%30.04 "Hg4 mi
9:50 PM34 °FFog.12 mph93%30.04 "Hg4 mi
9:20 PM34 °FFog.14 mph87%30.04 "Hg6 mi
8:50 PM32 °FClear.10 mph93%30.04 "Hg10 mi
8:20 PM32 °FClear.12 mph93%30.04 "Hg10 mi
7:50 PM32 °FClear.8 mph87%30.07 "Hg10 mi
7:20 PM30 °FClear.7 mph93%30.04 "Hg10 mi
6:50 PM30 °FClear.7 mph93%30.07 "Hg10 mi
6:20 PM32 °FClear.8 mph87%30.07 "Hg10 mi
5:50 PM32 °FClear.8 mph87%30.07 "Hg10 mi
5:20 PM34 °FClear.10 mph87%30.07 "Hg10 mi
4:50 PM34 °FSunny.10 mph87%30.07 "Hg10 mi
4:20 PM36 °FPassing clouds.13 mph81%30.07 "HgN/A
3:50 PM37 °FScattered clouds.13 mph75%30.09 "HgN/A
3:20 PM36 °FPartly sunny.12 mph81%30.09 "HgN/A
2:50 PM36 °FPartly sunny.14 mph81%30.09 "HgN/A
2:20 PM36 °FPartly sunny.13 mph81%30.09 "HgN/A
1:50 PM37 °FPartly sunny.13 mph81%30.12 "HgN/A
1:20 PM37 °FPartly sunny.14 mph81%30.09 "HgN/A
Weather by CustomWeather, © 2015

See weather overviewHow to use our weather pages